Starlink 1123

operational
NORAD ID: 44930 Int'l Des: 2020-001 Owner: SPXS Country: US Constellation: starlink
LEOCIRCULARSTARLINK_TYPE

Über Starlink 1123

Beschreibung wird geladen...

Live-Position

3D-Globus wird geladen...

Nächste Überflüge

Höhenverlauf

Altitude vs Time

uPlot chart will show altitude changes over time

Zweizeiliger Elementsatz

1 44930U 20001S 25304.01517312 .00002441 00000-0 18270-3 0 9999
2 44930 53.0531 208.7513 0001415 99.0799 261.0350 15.06399667320306
Epoch: 31. Okt. 2025 • Age: 17 hours

Aktueller Status

Höhe 566.6 km
Geschwindigkeit 7.58 km/s
Subsatellitenpunkt -53.14°S, 169.38°E
Startdatum 7. Jan. 2020
Alter 5.8 years
Typ internet

Technische Details

Klassifizierung Payload
Masse 260.00 kg
Trockenmasse 248.00 kg
Gesamtmasse 260.00 kg
Länge 0.20 m
Durchmesser 2.80 m
Spannweite 9.00 m
Form Box + pan
Hersteller SPXS
Bus-Typ Starlink
Phasenstatus In Orbit
Besitzer/Staat SPXS/US

Große Konstellationen

Loading constellations...